EW5549 Weather Reports


time (UTC)temp
F
wind
direction
speed
knots
gust
knots
rain 1hr
in
rain 24hr
in
rain mn
in
humidity
%
barometer
mb
20260504204839 57 331 4.3 7.0 0.00 0.00 0.00 42 1016.0
20260504204337 56 15 7.0 8.7 0.00 0.00 0.00 41 1016.6
20260504203836 56 11 6.1 7.8 0.00 0.00 0.00 41 1016.1
20260504203333 57 322 4.3 6.1 0.00 0.00 0.00 42 1016.3
20260504202828 57 335 2.6 2.6 0.00 0.00 0.00 43 1016.4
20260504202326 55 233 2.6 4.3 0.00 0.00 0.00 41 1016.4
20260504201822 55 298 3.5 4.3 0.00 0.00 0.00 41 1016.5
20260504201320 56 99 0.9 0.9 0.00 0.00 0.00 38 1016.4
20260504200817 55 351 2.6 2.6 0.00 0.00 0.00 39 1016.5
20260504200314 55 303 2.6 2.6 0.00 0.00 0.00 39 1016.5
20260504195810 55 295 1.7 1.7 0.00 0.00 0.00 39 1016.7
20260504195306 55 350 2.6 2.6 0.00 0.00 0.00 41 1016.8
20260504194803 55 20 2.6 4.3 0.00 0.00 0.00 43 1016.7
20260504194259 56 13 5.2 7.8 0.00 0.00 0.00 40 1016.6
20260504193755 56 333 4.3 6.1 0.00 0.00 0.00 39 1016.5
20260504193253 55 122 5.2 7.0 0.00 0.00 0.00 41 1016.7
20260504192751 56 30 4.3 5.2 0.00 0.00 0.00 39 1016.6
20260504192249 55 354 4.3 6.1 0.00 0.00 0.00 42 1016.5
20260504191747 55 6 4.3 5.2 0.00 0.00 0.00 41 1016.6
20260504191244 55 38 5.2 7.8 0.00 0.00 0.00 42 1016.7
20260504190739 54 341 4.3 6.1 0.00 0.00 0.00 44 1016.6
20260504190236 54 320 5.2 7.0 0.00 0.00 0.00 42 1016.8
20260504185732 54 11 4.3 6.1 0.00 0.00 0.00 43 1016.8
20260504185229 54 13 4.3 6.1 0.00 0.00 0.00 44 1016.6
20260504184725 54 23 2.6 2.6 0.00 0.00 0.00 46 1016.5
20260504184221 54 31 6.1 7.8 0.00 0.00 0.00 44 1016.7
20260504183717 54 34 3.5 4.3 0.00 0.00 0.00 47 1016.8
20260504183214 54 12 5.2 6.1 0.00 0.00 0.00 45 1016.9
20260504182713 54 14 5.2 7.0 0.00 0.00 0.00 47 1016.9
20260504182209 54 42 5.2 6.1 0.00 0.00 0.00 46 1016.8
20260504181707 55 14 3.5 4.3 0.00 0.00 0.00 46 1016.8
20260504181204 54 1 0.9 1.7 0.00 0.00 0.00 46 1016.8
20260504180703 55 352 2.6 4.3 0.00 0.00 0.00 45 1016.8
20260504180202 55 7 1.7 1.7 0.00 0.00 0.00 45 1016.8
20260504175658 55 295 4.3 4.3 0.00 0.00 0.00 43 1016.8
20260504175155 55 16 1.7 1.7 0.00 0.00 0.00 43 1016.8
20260504174653 55 34 0.0 0.9 0.00 0.00 0.00 43 1016.9
20260504174150 55 49 0.9 1.7 0.00 0.00 0.00 47 1016.6
20260504173647 55 356 0.9 2.6 0.00 0.00 0.00 45 1016.8
20260504173144 55 320 0.0 0.9 0.00 0.00 0.00 45 1016.8
20260504172641 56 349 0.9 1.7 0.00 0.00 0.00 43 1016.9
20260504172137 55 61 0.0 0.0 0.00 0.00 0.00 44 1016.9
20260504171633 55 255 0.0 0.0 0.00 0.00 0.00 43 1016.9
20260504171131 54 292 0.9 0.9 0.00 0.00 0.00 45 1016.9
20260504170627 55 122 0.9 1.7 0.00 0.00 0.00 44 1016.9
20260504170125 56 36 1.7 2.6 0.00 0.00 0.00 45 1016.9
20260504151010 50 296 2.6 2.6 0.00 0.00 0.00 53 1017.5
20260504150508 50 239 3.5 4.3 0.00 0.00 0.00 53 1017.6
20260504140933 48 288 3.5 4.3 0.00 0.00 0.00 59 1017.6
20260504140430 47 259 2.6 2.6 0.00 0.00 0.00 59 1017.6
20260504130355 44 293 1.7 1.7 0.00 0.00 0.00 65 1017.2
20260504120318 42 327 0.9 1.7 0.00 0.00 0.00 65 1016.7
20260504110242 44 5 0.9 1.7 0.00 0.00 0.00 61 1016.7
20260504100200 48 355 5.2 6.1 0.00 0.00 0.00 51 1015.8
20260504090122 51 313 3.5 4.3 0.00 0.00 0.00 52 1014.7
20260504081552 52 15 7.0 7.8 0.00 0.00 0.00 51 1012.6
20260504081048 46 316 0.9 1.7 0.00 0.00 0.00 57 1012.9
20260504080545 45 328 0.9 0.9 0.00 0.00 0.00 64 1012.6
20260504050358 57 340 0.0 0.0 0.00 0.00 0.00 33 1011.1
20260504045855 57 340 0.0 0.0 0.00 0.00 0.00 31 1010.9
20260504045350 58 275 0.9 0.9 0.00 0.00 0.00 31 1010.8
20260504044847 57 223 0.0 0.0 0.00 0.00 0.00 32 1011.0
20260504044344 57 228 1.7 1.7 0.00 0.00 0.00 33 1010.9
20260504043842 56 250 1.7 1.7 0.00 0.00 0.00 34 1010.9
20260504043338 55 7 0.0 0.0 0.00 0.00 0.00 36 1011.0
20260504042836 55 20 0.0 0.0 0.00 0.00 0.00 37 1010.8
20260504042332 56 1 0.0 0.0 0.00 0.00 0.00 36 1010.7
20260504041828 56 322 0.0 0.0 0.00 0.00 0.00 36 1010.8
20260504041325 56 349 0.0 0.0 0.00 0.00 0.00 37 1010.7
20260504040821 57 2 0.0 0.9 0.00 0.00 0.00 35 1011.0
20260504040319 57 345 0.9 0.9 0.00 0.00 0.00 36 1010.9
20260504035814 56 139 0.0 0.9 0.00 0.00 0.00 37 1010.6
20260504035312 55 153 2.6 2.6 0.00 0.00 0.00 40 1010.5
20260504034809 55 25 0.0 0.0 0.00 0.00 0.00 40 1010.2
20260504034307 57 26 1.7 1.7 0.00 0.00 0.00 37 1010.5
20260504033804 57 358 0.9 1.7 0.00 0.00 0.00 36 1010.3
20260504033301 57 338 1.7 1.7 0.00 0.00 0.00 37 1010.2
20260504032758 60 345 1.7 1.7 0.00 0.00 0.00 37 1010.3
20260504032255 64 294 4.3 6.1 0.00 0.00 0.00 28 1010.1
20260504031751 64 260 6.1 7.0 0.00 0.00 0.00 27 1010.1
20260504031249 64 276 6.1 7.0 0.00 0.00 0.00 28 1009.9
20260504030745 65 282 7.8 9.6 0.00 0.00 0.00 27 1010.1
20260504030242 66 275 8.7 9.6 0.00 0.00 0.00 27 1010.0
20260504025738 64 280 7.8 8.7 0.00 0.00 0.00 27 1009.9
20260504025236 63 301 6.1 6.1 0.00 0.00 0.00 31 1009.9
20260504024732 63 298 4.3 5.2 0.00 0.00 0.00 32 1010.0
20260504024229 63 294 7.8 8.7 0.00 0.00 0.00 30 1010.0
20260504023726 63 301 6.1 7.8 0.00 0.00 0.00 33 1009.8
20260504023222 64 312 5.2 6.1 0.00 0.00 0.00 33 1009.7
20260504022718 64 295 6.1 7.8 0.00 0.00 0.00 32 1009.4
20260504022215 65 288 7.0 7.8 0.00 0.00 0.00 30 1009.7
20260504021712 66 281 6.1 7.0 0.00 0.00 0.00 31 1009.8
20260504021209 66 326 6.1 6.1 0.00 0.00 0.00 30 1009.7
20260504020706 66 295 7.8 7.8 0.00 0.00 0.00 30 1009.8
20260504020202 67 301 6.1 7.0 0.00 0.00 0.00 29 1009.8
20260504015658 68 294 7.8 8.7 0.00 0.00 0.00 27 1009.8
20260504015154 68 295 5.2 6.1 0.00 0.00 0.00 28 1009.6
20260504014650 68 294 5.2 7.0 0.00 0.00 0.00 29 1009.6
20260504014148 69 305 5.2 7.0 0.00 0.00 0.00 28 1009.8
20260504013646 70 308 7.8 8.7 0.00 0.00 0.00 26 1009.6
20260504013142 71 318 6.1 7.0 0.00 0.00 0.00 25 1009.8
20260504012639 71 319 7.0 7.8 0.00 0.00 0.00 25 1009.9
20260504012137 71 279 7.0 8.7 0.00 0.00 0.00 24 1009.7
20260504011634 71 305 7.0 7.8 0.00 0.00 0.00 25 1009.7
20260504011130 71 271 7.8 8.7 0.00 0.00 0.00 26 1009.9
20260504010626 72 298 8.7 9.6 0.00 0.00 0.00 26 1009.8
20260504010122 73 297 7.0 7.0 0.00 0.00 0.00 27 1009.9
20260504005619 73 303 6.1 7.8 0.00 0.00 0.00 27 1009.8
20260504005116 73 321 5.2 6.1 0.00 0.00 0.00 28 1009.8
20260504004614 73 312 7.0 7.8 0.00 0.00 0.00 24 1009.8
20260504004111 73 293 6.1 7.8 0.00 0.00 0.00 25 1009.8
20260504003607 73 290 5.2 6.1 0.00 0.00 0.00 27 1010.0
20260504003104 74 289 7.0 7.0 0.00 0.00 0.00 27 1010.2
20260504002601 74 287 8.7 9.6 0.00 0.00 0.00 26 1010.1
20260504002058 74 296 7.0 7.8 0.00 0.00 0.00 26 1010.0
20260504001556 74 310 7.0 7.8 0.00 0.00 0.00 27 1010.0
20260504001052 74 317 6.1 8.7 0.00 0.00 0.00 25 1010.3
20260504000549 75 28 4.3 7.0 0.00 0.00 0.00 24 1010.1
20260504000046 75 322 7.8 9.6 0.00 0.00 0.00 26 1010.1
20260503235545 75 306 6.1 7.0 0.00 0.00 0.00 25 1010.3
20260503235041 75 316 4.3 6.1 0.00 0.00 0.00 24 1010.5
20260503234539 75 345 3.5 5.2 0.00 0.00 0.00 23 1010.1
20260503234037 75 350 5.2 6.1 0.00 0.00 0.00 25 1010.2
20260503233533 75 300 7.8 9.6 0.00 0.00 0.00 24 1010.2
20260503233029 75 332 8.7 11.3 0.00 0.00 0.00 23 1010.3
20260503232526 75 342 6.1 8.7 0.00 0.00 0.00 22 1010.2
20260503232024 75 292 8.7 9.6 0.00 0.00 0.00 22 1010.3
20260503231522 75 285 8.7 8.7 0.00 0.00 0.00 22 1010.5
20260503231018 75 317 2.6 4.3 0.00 0.00 0.00 22 1010.5
20260503230515 74 346 4.3 5.2 0.00 0.00 0.00 22 1010.7
20260503230012 74 236 4.3 4.3 0.00 0.00 0.00 21 1010.7
20260503225509 75 310 6.1 7.0 0.00 0.00 0.00 24 1010.8
20260503225004 75 326 2.6 4.3 0.00 0.00 0.00 24 1010.8
20260503224502 75 288 2.6 4.3 0.00 0.00 0.00 22 1010.7
20260503223959 75 256 6.1 7.0 0.00 0.00 0.00 22 1010.9
20260503223457 74 281 7.0 7.8 0.00 0.00 0.00 21 1010.9
20260503222952 75 288 7.0 8.7 0.00 0.00 0.00 22 1011.0
20260503222451 75 297 13.0 13.9 0.00 0.00 0.00 23 1011.0
20260503221949 75 309 6.1 7.8 0.00 0.00 0.00 22 1011.2
20260503221447 75 313 3.5 5.2 0.00 0.00 0.00 22 1011.0
20260503220943 74 289 9.6 9.6 0.00 0.00 0.00 22 1011.2
20260503220439 75 302 8.7 9.6 0.00 0.00 0.00 23 1011.1
20260503215937 74 328 2.6 2.6 0.00 0.00 0.00 23 1011.5
20260503215433 74 294 6.1 7.8 0.00 0.00 0.00 23 1011.6
20260503214931 74 277 5.2 5.2 0.00 0.00 0.00 26 1011.5
20260503214429 74 254 5.2 7.0 0.00 0.00 0.00 27 1011.6
20260503213926 74 281 8.7 8.7 0.00 0.00 0.00 28 1011.7
20260503213424 76 294 3.5 6.1 0.00 0.00 0.00 27 1011.7
20260503212920 75 229 3.5 4.3 0.00 0.00 0.00 28 1011.7
20260503212418 75 333 0.0 0.0 0.00 0.00 0.00 27 1011.9
20260503211915 74 295 6.1 7.0 0.00 0.00 0.00 27 1011.8
20260503211412 74 272 4.3 5.2 0.00 0.00 0.00 26 1012.2
20260503210907 74 148 1.7 1.7 0.00 0.00 0.00 28 1012.0
20260503210404 74 65 3.5 4.3 0.00 0.00 0.00 31 1012.2
20260503205859 74 17 3.5 4.3 0.00 0.00 0.00 29 1012.4
20260503205356 74 355 1.7 2.6 0.00 0.00 0.00 30 1012.5